FW6482 Weather Reports


Display with metric or nautical units.
time (UTC)temp
F
wind
direction
speed
MPH
gust
MPH
rain 1hr
in
rain 24hr
in
rain mn
in
humidity
%
barometer
mb
20260904111547 83 274 13.0 24.0 0.00 0.00 0.00 55 1009.6
20260904110038 83 228 11.0 26.0 0.00 0.00 0.00 56 1009.8
20260904104532 80 229 14.0 23.0 0.00 0.00 0.00 59 1010.0
20260904103031 80 227 11.0 23.0 0.00 0.00 0.00 61 1010.2
20260904101526 78 275 8.0 23.0 0.00 0.00 0.00 64 1010.3
20260904100023 77 229 8.0 21.0 0.00 0.00 0.00 65 1010.5
20260904094520 76 242 9.0 21.0 0.00 0.00 0.00 67 1010.6
20260904093018 76 234 8.0 19.0 0.00 0.00 0.00 68 1010.7
20260904091517 76 246 7.0 24.0 0.00 0.00 0.00 68 1010.6
20260904090022 76 240 11.0 20.0 0.00 0.00 0.00 68 1010.6
20260904084514 76 250 8.0 19.0 0.00 0.00 0.00 69 1010.5
20260904083016 76 232 9.0 14.0 0.00 0.00 0.00 70 1010.5
20260904081511 75 247 6.0 12.0 0.00 0.00 0.00 72 1010.6
20260904080009 75 211 5.0 15.0 0.00 0.00 0.00 73 1010.9
20260904074509 75 239 6.0 12.0 0.00 0.00 0.00 73 1011.0
20260904073004 74 256 5.0 15.0 0.00 0.00 0.00 74 1011.2
20260904071601 74 242 6.0 13.0 0.00 0.00 0.00 76 1011.4
20260904070054 72 232 6.0 11.0 0.00 0.00 0.00 81 1011.6
20260904064550 70 211 2.0 4.0 0.00 0.00 0.00 85 1011.7
20260904063104 68 211 1.0 4.0 0.00 0.00 0.00 86 1011.9
20260904061545 68 211 2.0 4.0 0.00 0.00 0.00 87 1012.0
20260904060105 67 211 1.0 5.0 0.00 0.00 0.00 86 1012.1
20260904054540 67 211 2.0 5.0 0.00 0.00 0.00 86 1012.3
20260904053037 67 214 3.0 5.0 0.00 0.00 0.00 86 1012.5
20260904051536 67 215 2.0 6.0 0.00 0.00 0.00 86 1012.5
20260904050034 67 215 2.0 5.0 0.00 0.00 0.00 85 1012.5
20260904044542 68 216 2.0 6.0 0.00 0.00 0.00 84 1012.5
20260904043031 68 229 2.0 6.0 0.00 0.00 0.00 85 1012.7
20260904041533 67 232 3.0 6.0 0.00 0.00 0.00 85 1012.9
20260904040028 67 200 3.0 8.0 0.00 0.00 0.00 86 1013.0
20260904034527 67 223 2.0 4.0 0.00 0.00 0.00 86 1013.1
20260904033026 67 223 2.0 6.0 0.00 0.00 0.00 86 1013.2
20260904031524 66 225 3.0 7.0 0.00 0.00 0.00 87 1013.3
20260904030022 66 228 2.0 6.0 0.00 0.00 0.00 86 1013.5
20260904024521 67 229 3.0 7.0 0.00 0.00 0.00 86 1013.5
20260904023017 67 231 2.0 4.0 0.00 0.00 0.00 85 1013.8
20260904021521 67 232 2.0 6.0 0.00 0.00 0.00 85 1014.1
20260904020016 67 234 2.0 7.0 0.00 0.00 0.00 85 1014.1
20260904014521 67 212 2.0 7.0 0.00 0.00 0.00 86 1014.3
20260904013013 67 220 3.0 6.0 0.00 0.00 0.00 86 1014.2
20260904011526 67 210 3.0 6.0 0.00 0.00 0.00 86 1014.3
20260904010017 67 209 3.0 8.0 0.00 0.00 0.00 86 1014.4
20260904004509 67 246 1.0 5.0 0.00 0.00 0.00 86 1014.6
20260904003007 67 254 1.0 4.0 0.00 0.00 0.00 85 1014.8
20260904001505 67 254 0.0 3.0 0.00 0.00 0.00 85 1014.9
20260904000003 68 254 1.0 3.0 0.00 0.00 0.00 84 1015.1
20260903234502 68 254 0.0 3.0 0.00 0.00 0.00 84 1015.2
20260903233103 68 254 1.0 4.0 0.00 0.00 0.00 84 1015.2
20260903231600 68 254 1.0 3.0 0.00 0.00 0.00 84 1015.3
20260903224608 68 254 1.0 4.0 0.00 0.00 0.00 83 1015.3
20260903223056 68 255 1.0 4.0 0.00 0.00 0.00 83 1015.5
20260903221555 68 255 2.0 9.0 0.00 0.00 0.00 84 1015.8
20260903220111 68 217 2.0 5.0 0.00 0.00 0.00 84 1015.9
20260903214552 68 215 2.0 4.0 0.00 0.00 0.00 84 1016.0
20260903213051 68 215 2.0 5.0 0.00 0.00 0.00 84 1016.1
20260903211615 67 202 2.0 5.0 0.00 0.00 0.00 84 1016.2
20260903210055 67 189 2.0 5.0 0.00 0.00 0.00 84 1016.2
20260903204550 67 183 2.0 7.0 0.00 0.00 0.00 84 1016.2
20260903203050 67 209 3.0 7.0 0.00 0.00 0.00 84 1016.2
20260903201549 67 209 3.0 6.0 0.00 0.00 0.00 83 1016.2
20260903200048 67 209 3.0 7.0 0.00 0.00 0.00 82 1016.3
20260903194547 68 271 4.0 9.0 0.00 0.00 0.00 82 1016.1
20260903193046 68 233 3.0 6.0 0.00 0.00 0.00 81 1016.1
20260903191545 69 239 2.0 7.0 0.00 0.00 0.00 79 1016.1
20260903190045 69 262 3.0 6.0 0.00 0.00 0.00 78 1016.2
20260903184543 70 238 3.0 8.0 0.00 0.00 0.00 77 1016.3
20260903183043 70 219 3.0 11.0 0.00 0.00 0.00 76 1016.1
20260903181542 71 225 5.0 12.0 0.00 0.00 0.00 74 1016.1
20260903180041 71 248 5.0 13.0 0.00 0.00 0.00 73 1016.2
20260903174557 72 238 5.0 11.0 0.00 0.00 0.00 72 1016.0
20260903173041 72 243 6.0 16.0 0.00 0.00 0.00 72 1016.3
20260903171539 72 244 4.0 14.0 0.00 0.00 0.00 70 1016.0
20260903170103 73 245 9.0 17.0 0.00 0.00 0.00 69 1016.0
20260903164548 74 242 6.0 16.0 0.00 0.00 0.00 67 1016.1
20260903163038 75 232 7.0 15.0 0.00 0.00 0.00 65 1016.0
20260903161539 75 219 10.0 23.0 0.00 0.00 0.00 66 1015.8
20260903160037 75 238 9.0 20.0 0.00 0.00 0.00 66 1016.0
20260903154536 73 242 5.0 18.0 0.00 0.00 0.00 69 1016.0
20260903153043 72 221 8.0 17.0 0.00 0.00 0.00 70 1016.3
20260903151547 73 298 10.0 21.0 0.00 0.00 0.00 67 1016.1
20260903150035 74 253 10.0 18.0 0.00 0.00 0.00 66 1016.1
20260903144535 74 254 7.0 18.0 0.00 0.00 0.00 66 1016.1
20260903143033 73 255 5.0 23.0 0.00 0.00 0.00 67 1016.3
20260903141534 73 276 8.0 14.0 0.00 0.00 0.00 66 1016.3
20260903140032 75 252 8.0 17.0 0.00 0.00 0.00 64 1016.2
20260903134531 76 249 5.0 22.0 0.00 0.00 0.00 61 1016.1
20260903133130 77 246 11.0 20.0 0.00 0.00 0.00 60 1015.9
20260903131528 77 254 6.0 14.0 0.00 0.00 0.00 60 1015.7
20260903130026 77 217 7.0 13.0 0.00 0.00 0.00 62 1015.8
20260903124525 77 279 3.0 15.0 0.00 0.00 0.00 61 1015.9
20260903123025 77 268 7.0 15.0 0.00 0.00 0.00 60 1015.8
20260903121521 76 213 2.0 9.0 0.00 0.00 0.00 62 1015.7
20260903120025 75 224 10.0 17.0 0.00 0.00 0.00 63 1015.6
20260903114516 73 244 7.0 15.0 0.00 0.00 0.00 63 1015.8
20260903113012 73 245 6.0 18.0 0.00 0.00 0.00 65 1015.8